This is the latest recevied weather packets stored in our database for station/object G0TRT-13. If no packets are shown the sender has not sent any weather packets the latest 10 day(s).
| Time | Temp. | Humidity | Pressure | Rain* | Wind** | Luminosity | Snow |
|---|---|---|---|---|---|---|---|
| 1778076199 | 15° C | 52% | 1013.4 hPa | 0 mm | - | - | - |
| 1778075900 | 14.44° C | 51% | 1013.5 hPa | 0 mm | - | - | - |
| 1778075599 | 14.44° C | 52% | 1013.7 hPa | 0 mm | - | - | - |
| 1778075299 | 14.44° C | 54% | 1013.6 hPa | 0 mm | - | - | - |
| 1778074999 | 15° C | 49% | 1013.5 hPa | 0 mm | - | - | - |
| 1778074699 | 15.56° C | 48% | 1013.6 hPa | 0 mm | - | - | - |
| 1778074399 | 16.11° C | 48% | 1013.5 hPa | 0 mm | - | - | - |
| 1778074100 | 16.11° C | 47% | 1013.6 hPa | 0 mm | - | - | - |
| 1778073797 | 16.67° C | 49% | 1013.6 hPa | 0 mm | - | - | - |
| 1778073495 | 15.56° C | 50% | 1013.5 hPa | 0 mm | - | - | - |
| 1778073195 | 15.56° C | 48% | 1013.6 hPa | 0 mm | - | - | - |
| 1778072893 | 15.56° C | 47% | 1013.7 hPa | 0 mm | - | - | - |
| 1778072594 | 16.11° C | 49% | 1013.8 hPa | 0 mm | - | - | - |
| 1778072294 | 15.56° C | 49% | 1013.7 hPa | 0 mm | - | - | - |
| 1778071990 | 15.56° C | 48% | 1013.7 hPa | 0 mm | - | - | - |
| 1778071691 | 15.56° C | 48% | 1013.7 hPa | 0 mm | - | - | - |
| 1778071390 | 15.56° C | 51% | 1013.6 hPa | 0 mm | - | - | - |
| 1778071089 | 15° C | 50% | 1013.6 hPa | 0 mm | - | - | - |
| 1778070789 | 15.56° C | 46% | 1013.6 hPa | 0 mm | - | - | - |
| 1778070487 | 15.56° C | 47% | 1013.6 hPa | 0 mm | - | - | - |
| 1778070187 | 15.56° C | 48% | 1013.7 hPa | 0 mm | - | - | - |
| 1778069885 | 15.56° C | 47% | 1013.7 hPa | 0 mm | - | - | - |
| 1778069583 | 15° C | 51% | 1013.7 hPa | 0 mm | - | - | - |
| 1778069282 | 14.44° C | 50% | 1013.8 hPa | 0 mm | - | - | - |
| 1778068981 | 14.44° C | 50% | 1013.8 hPa | 0 mm | - | - | - |
* Rain latest hour (hover to see other rain measurements)
** Current wind speed in m/s (hover to see current wind gust speed)